Tracking 33068 objects as of 24-Jan-2026
HD Live streaming from Space Station
objects crossing your sky now

STARLINK-4727

Track STARLINK-4727 now!
10-day predictions
STARLINK-4727 is classified as:


NORAD ID: 53803
Int'l Code: 2022-111AG
Perigee: 545.9 km
Apogee: 547.8 km
Inclination: 53.2 °
Period: 95.4 minutes
Semi major axis: 6917 km
RCS: Unknown
Launch date: September 11, 2022
Source: United States (US)
Launch site: AIR FORCE EASTERN TEST RANGE (AFETR)
Your satellite tracking list
Your tracking list is empty




NASA's NSSDC Master Catalog

Two Line Element Set (TLE):
1 53803U 22111AG  26023.89501641  .00005926  00000-0  38995-3 0  9992
2 53803  53.2159  90.2572 0001373  67.4400 292.6737 15.08854235187267
Source of the keplerian elements: AFSPC